Find Starlink 34328

NORAD ID: 64220 Int'l Des: 2025-117 Owner: SPXS Country: US Constellation: starlink operational
LEOCIRCULAR

Live Position

Loading 3D Globe...

About Starlink 34328

Description loading...

Upcoming Passes

Passes for default location (London). Set your location on the main map for personalized predictions.

Altitude History

Loading altitude history...

Two-Line Element Set

1 64220U 25117T 26105.77367439 .00013670 00000-0 47274-3 0 9994
2 64220 53.1585 227.3321 0001128 81.2990 278.8138 15.30205247 50207
Epoch: Apr 15, 2026 • Age: 17 hours

Current Status

Altitude 485.4 km
Velocity 7.62 km/s
Sub-Earth Point -31.54°S, 58.66°E
Launch Date May 31, 2025
Age 0.8 years
Type internet

Technical Details

Classification Payload
Mass 575.00 kg
Dry Mass 530.00 kg
Total Mass 575.00 kg
Length 0.30 m
Diameter 4.10 m
Span 29.00 m
Shape Box + pan
Manufacturer SPXS
Bus Type Starlink V2MO
Phase Status In Orbit
Owner/State SPXS/US

Most Searched